KI5FU-13 Weather Reports


time (UTC)temp
F
wind
direction
speed
knots
gust
knots
rain 1hr
in
rain 24hr
in
rain mn
in
humidity
%
barometer
mb
20260502151527 62 355 7.8 13.0 0.00 0.65 0.00 63 1022.1
20260502130107 54 360 6.1 9.6 0.00 1.47 0.00 76 1020.9
20260502123054 52 351 6.1 9.6 0.00 1.47 0.00 77 1020.5
20260502121559 52 347 5.2 9.6 0.00 1.47 0.00 77 1020.3
20260502120107 51 345 7.8 13.9 0.00 1.63 0.00 77 1020.1
20260502114554 51 355 7.0 12.2 0.00 1.63 0.00 77 1019.9
20260502113103 51 5 7.0 11.3 0.00 1.63 0.00 77 1019.7
20260502111546 51 9 6.1 10.4 0.00 1.63 0.00 77 1019.6
20260502110043 51 335 7.8 11.3 0.00 2.13 0.00 77 1019.5
20260502104538 51 341 6.1 7.8 0.00 2.13 0.00 77 1019.5
20260502103058 51 342 3.5 5.2 0.00 2.13 0.00 77 1019.2
20260502101547 51 339 2.6 4.3 0.00 2.13 0.00 76 1019.1
20260502091527 51 9 1.7 4.3 0.00 2.33 0.00 76 1018.6
20260502071518 53 12 8.7 13.9 0.00 2.66 0.00 75 1017.6
20260502070113 54 339 6.1 14.8 0.00 2.75 0.00 75 1017.4
20260502064548 54 10 8.7 16.5 0.00 2.75 0.00 75 1017.3
20260502063054 54 19 7.8 13.0 0.00 2.75 0.00 75 1017.0
20260502061542 54 360 7.0 13.9 0.00 2.75 0.00 75 1017.6
20260502060039 55 5 7.8 17.4 0.00 2.75 0.00 75 1017.8
20260502054550 55 5 7.0 12.2 0.00 2.75 0.00 76 1017.7
20260502053038 56 360 8.7 13.9 0.00 2.75 0.00 76 1017.5
20260502051534 56 11 7.0 12.2 0.00 2.75 0.00 75 1017.4
20260502050029 56 24 7.0 11.3 0.00 2.77 2.75 75 1017.4
20260502044529 56 26 7.0 16.5 0.00 2.77 2.75 75 1017.5
20260502043029 56 22 12.2 19.1 0.00 2.77 2.75 76 1017.2
20260502041527 56 344 10.4 16.5 0.00 2.77 2.75 76 1017.1
20260502040020 56 13 8.7 13.9 0.00 2.81 2.75 76 1016.9
20260502034519 56 30 10.4 15.6 0.00 2.81 2.75 76 1016.6
20260502033018 56 18 7.0 13.9 0.00 2.81 2.75 76 1016.6
20260502031516 56 25 7.8 14.8 0.00 2.81 2.75 76 1016.5
20260502030014 56 32 9.6 17.4 0.00 2.81 2.75 76 1016.3
20260502024511 56 355 12.2 18.2 0.00 2.81 2.75 76 1016.3
20260502023009 56 360 12.2 19.1 0.00 2.81 2.75 76 1015.8
20260502021504 57 349 11.3 19.1 0.00 2.81 2.75 77 1015.3
20260502020002 57 5 11.3 19.1 0.00 2.81 2.75 77 1015.1
20260502014559 58 14 9.6 15.6 0.00 2.81 2.75 77 1014.9
20260502013059 58 19 9.6 14.8 0.00 2.81 2.75 77 1014.5
20260502011553 58 9 7.8 13.9 0.00 2.81 2.75 77 1014.2
20260502010055 58 24 7.0 16.5 0.00 2.81 2.75 77 1013.8
20260502004552 58 36 9.6 18.2 0.00 2.81 2.75 77 1013.7
20260502003048 59 14 9.6 16.5 0.00 2.81 2.75 78 1013.5
20260502001547 59 35 10.4 15.6 0.02 2.81 2.75 78 1013.3
20260502000047 59 11 8.7 18.2 0.04 2.81 2.75 78 1013.5
20260501234549 59 22 7.0 19.1 0.05 2.81 2.75 78 1013.5
20260501233052 59 24 7.8 13.0 0.05 2.81 2.75 78 1013.7
20260501231538 59 342 8.7 13.9 0.03 2.79 2.73 78 1013.2
20260501230041 60 5 10.4 17.4 0.01 2.77 2.71 78 1012.5
20260501224536 60 28 10.4 20.0 0.00 2.76 2.70 78 1012.7
20260501223040 60 326 12.2 18.2 0.00 2.76 2.70 79 1012.7
20260501221533 61 336 9.6 13.9 0.00 2.76 2.70 79 1012.5
20260501220029 61 14 9.6 15.6 0.00 2.76 2.70 79 1011.9
20260501214532 61 355 8.7 15.6 0.00 2.76 2.70 79 1011.4
20260501213028 61 349 9.6 13.9 0.00 2.76 2.70 79 1011.0
20260501211533 61 5 9.6 20.0 0.00 2.76 2.70 79 1009.7
20260501210033 61 12 10.4 18.2 0.00 2.76 2.70 80 1009.6
20260501204525 61 29 10.4 16.5 0.00 2.76 2.70 80 1009.9
20260501203028 61 13 12.2 19.1 0.01 2.76 2.70 80 1010.0
20260501201521 62 38 11.3 16.5 0.03 2.76 2.70 80 1010.3
20260501200023 62 19 8.7 16.5 0.05 2.76 2.70 80 1010.7
20260501194521 61 335 9.6 16.5 0.28 2.76 2.70 80 1010.8
20260501193020 61 31 9.6 13.9 0.31 2.75 2.69 80 1010.6
20260501191519 61 337 7.8 17.4 0.28 2.73 2.67 80 1011.7
20260501190018 62 320 7.0 12.2 0.26 2.70 2.64 80 1012.3
20260501184518 62 298 10.4 17.4 0.03 2.47 2.41 80 1010.6
20260501183017 62 25 7.8 13.0 0.00 2.44 2.38 80 1009.1
20260501181515 62 25 9.6 12.2 0.00 2.44 2.38 80 1009.4
20260501180015 62 17 8.7 13.0 0.01 2.44 2.38 80 1009.4
20260501174513 62 63 7.0 12.2 0.01 2.44 2.38 80 1009.1
20260501173016 62 9 7.8 13.0 0.02 2.44 2.38 80 1010.2
20260501171512 62 36 8.7 13.0 0.06 2.44 2.38 80 1009.8
20260501170011 62 15 8.7 14.8 0.16 2.43 2.37 80 1010.2
20260501164510 61 82 8.7 14.8 0.23 2.43 2.37 80 1009.6
20260501163009 61 28 6.1 14.8 0.24 2.42 2.36 80 1011.0
20260501161507 61 76 9.6 15.6 0.22 2.38 2.31 80 1011.1
20260501160008 61 19 8.7 13.0 0.12 2.27 2.21 80 1012.3
20260501154506 61 9 7.8 12.2 0.06 2.20 2.14 80 1011.9
20260501153009 61 44 6.1 13.0 0.09 2.18 2.12 80 1011.9